contact:dominique.lefevre@mio.osupytheas.fr, maurice.libes@osupytheas.fr
Project:EMSO Ligure-ouest http://www.emso-fr.org/EMSO-France
Sensor Aquadopp, line 13 Serial AQD14315 
DOI : "https://doi.org/10.17882/74513; https://doi.org/10.17882/83244" 
Title:EMSO Ligure Ouest : Data ligne ALBATROSS capteur AQUADOPP - deploiement 2021
Id,Date,Profondeur,Latitude,Longitude,X_East,Y_North,Z_Up,Amplitude_X,Amplitude_Y,Amplitude_Z,Batterie,SoundSpeed,Heading,Pitch,Roll,Pressure,Temperature,Speed,Direction
, , m, degrees North, degrees East, m.s-1, m.s-1,m.s-1, 1, 1, 1, Volt, m.s-1, degree, degree, degree, dbar, degree_C, m.s-1, degree
09,2022-02-28T21:30:00,2000.0,42.79,6.0312,0.006,-0.038,-0.037,73.0,65.0,70.0,12.1,1504.6,210.0,-0.8,1.1,1990.48,13.27,0.038,171.0
09,2022-02-28T22:00:00,2000.0,42.79,6.0312,0.015,-0.041,-0.007,72.0,68.0,70.0,12.1,1504.6,207.5,-0.7,1.1,1990.48,13.27,0.043,159.9
09,2022-02-28T22:30:00,2000.0,42.79,6.0312,-0.003,-0.02,-0.021,73.0,68.0,69.0,12.1,1504.6,202.8,-0.8,1.0,1990.426,13.27,0.02,188.5
09,2022-02-28T23:00:00,2000.0,42.79,6.0312,0.012,-0.01,0.012,70.0,68.0,70.0,12.1,1504.6,201.1,-0.8,1.2,1990.426,13.27,0.015,129.8
09,2022-03-01T00:00:00,2000.0,42.79,6.0312,0.014,-0.003,-0.015,71.0,67.0,73.0,12.1,1504.6,209.0,-0.8,1.1,1990.407,13.27,0.014,102.1
09,2022-03-01T00:30:00,2000.0,42.79,6.0312,0.01,-0.013,0.009,69.0,66.0,73.0,12.1,1504.6,205.8,-0.7,1.1,1990.375,13.27,0.016,142.4
09,2022-03-01T01:00:00,2000.0,42.79,6.0312,0.017,-0.019,0.025,70.0,67.0,71.0,12.1,1504.6,204.4,-0.8,1.1,1990.406,13.27,0.025,138.2
09,2022-03-01T01:30:00,2000.0,42.79,6.0312,0.026,-0.002,-0.008,70.0,65.0,68.0,12.1,1504.6,199.1,-0.7,1.0,1990.362,13.27,0.026,94.4
09,2022-03-01T02:00:00,2000.0,42.79,6.0312,0.042,-0.039,-0.02,70.0,66.0,69.0,12.1,1504.6,197.1,-0.7,1.1,1990.447,13.27,0.057,132.9
09,2022-03-01T02:30:00,2000.0,42.79,6.0312,0.017,-0.037,0.021,70.0,66.0,69.0,12.1,1504.6,198.1,-0.7,1.1,1990.454,13.27,0.04,155.3
09,2022-03-01T03:00:00,2000.0,42.79,6.0312,0.03,-0.009,-0.013,67.0,66.0,72.0,12.1,1504.6,197.8,-0.7,1.1,1990.475,13.27,0.031,106.7
09,2022-03-01T03:30:00,2000.0,42.79,6.0312,0.001,-0.02,-0.006,70.0,66.0,69.0,12.1,1504.6,201.8,-0.7,1.0,1990.492,13.27,0.02,177.1
09,2022-03-01T04:00:00,2000.0,42.79,6.0312,0.035,-0.032,-0.008,71.0,66.0,70.0,12.1,1504.6,198.4,-0.7,1.0,1990.551,13.27,0.047,132.4
09,2022-03-01T04:30:00,2000.0,42.79,6.0312,0.009,-0.021,-0.01,70.0,68.0,68.0,12.1,1504.6,200.1,-0.7,1.0,1990.608,13.27,0.022,156.8
09,2022-03-01T05:00:00,2000.0,42.79,6.0312,0.004,-0.035,0.016,70.0,64.0,69.0,12.1,1504.6,199.7,-0.7,1.0,1990.585,13.27,0.035,173.5
09,2022-03-01T05:30:00,2000.0,42.79,6.0312,0.013,-0.03,-0.018,71.0,67.0,68.0,12.1,1504.6,195.0,-0.7,1.0,1990.631,13.27,0.032,156.6
09,2022-03-01T06:00:00,2000.0,42.79,6.0312,-0.019,-0.031,-0.005,69.0,67.0,67.0,12.1,1504.6,190.7,-0.7,1.0,1990.653,13.27,0.036,211.5
09,2022-03-01T06:30:00,2000.0,42.79,6.0312,0.009,-0.016,-0.043,69.0,67.0,68.0,12.1,1504.6,187.4,-0.7,1.0,1990.651,13.27,0.018,150.6
09,2022-03-01T07:00:00,2000.0,42.79,6.0312,0.026,-0.008,-0.03,72.0,67.0,67.0,12.1,1504.6,190.0,-0.7,1.1,1990.687,13.27,0.027,107.1
09,2022-03-01T07:30:00,2000.0,42.79,6.0312,0.0,-0.006,-0.042,70.0,64.0,69.0,12.1,1504.6,189.1,-0.8,1.0,1990.663,13.27,0.006,180.0
09,2022-03-01T08:00:00,2000.0,42.79,6.0312,0.002,-0.028,0.018,70.0,64.0,71.0,12.1,1504.6,188.6,-0.8,1.0,1990.638,13.27,0.028,175.9
09,2022-03-01T08:30:00,2000.0,42.79,6.0312,0.006,-0.033,-0.028,70.0,67.0,72.0,12.1,1504.6,186.1,-0.8,1.1,1990.647,13.27,0.033,169.7
09,2022-03-01T09:00:00,2000.0,42.79,6.0312,0.006,-0.022,-0.007,72.0,69.0,72.0,12.1,1504.6,185.5,-0.8,1.1,1990.602,13.27,0.022,164.7
09,2022-03-01T09:30:00,2000.0,42.79,6.0312,-0.001,-0.025,0.001,70.0,65.0,68.0,12.1,1504.6,184.4,-0.8,1.1,1990.624,13.27,0.025,182.3
09,2022-03-01T10:00:00,2000.0,42.79,6.0312,0.014,-0.02,-0.023,70.0,65.0,70.0,12.1,1504.6,176.6,-0.7,1.1,1990.561,13.27,0.024,145.0
09,2022-03-01T10:30:00,2000.0,42.79,6.0312,-0.002,-0.022,-0.023,71.0,66.0,68.0,12.1,1504.6,181.5,-0.8,1.1,1990.56,13.27,0.022,185.2
09,2022-03-01T11:00:00,2000.0,42.79,6.0312,-0.007,-0.024,-0.003,73.0,68.0,73.0,12.1,1504.6,193.7,-0.7,1.0,1990.504,13.27,0.025,196.3
09,2022-03-01T11:30:00,2000.0,42.79,6.0312,0.0,-0.022,-0.023,70.0,68.0,69.0,12.1,1504.6,185.5,-0.6,1.1,1990.475,13.27,0.022,180.0
09,2022-03-01T12:00:00,2000.0,42.79,6.0312,0.0,-0.034,0.0,72.0,64.0,72.0,12.1,1504.6,191.5,-0.7,1.1,1990.464,13.27,0.034,180.0
09,2022-03-01T13:00:00,2000.0,42.79,6.0312,0.007,-0.021,-0.005,70.0,65.0,71.0,12.1,1504.6,188.6,-0.7,1.1,1990.438,13.27,0.022,161.6
09,2022-03-01T13:30:00,2000.0,42.79,6.0312,-0.003,-0.001,0.018,71.0,64.0,74.0,12.1,1504.6,191.2,-0.8,1.1,1990.418,13.27,0.003,251.6
09,2022-03-01T14:00:00,2000.0,42.79,6.0312,0.018,-0.009,-0.018,65.0,66.0,69.0,12.1,1504.6,198.6,-0.8,1.1,1990.439,13.27,0.02,116.6
09,2022-03-01T14:30:00,2000.0,42.79,6.0312,-0.008,0.0,-0.006,67.0,64.0,66.0,12.1,1504.6,202.9,-0.7,1.0,1990.444,13.27,0.008,270.0
09,2022-03-01T15:00:00,2000.0,42.79,6.0312,0.006,-0.006,-0.027,68.0,63.0,71.0,12.1,1504.6,207.5,-0.8,1.0,1990.451,13.27,0.008,135.0
09,2022-03-01T15:30:00,2000.0,42.79,6.0312,0.016,0.014,0.002,70.0,63.0,67.0,12.1,1504.6,211.2,-0.7,1.0,1990.48,13.27,0.021,48.8
09,2022-03-01T16:00:00,2000.0,42.79,6.0312,0.007,-0.001,0.01,71.0,67.0,70.0,12.1,1504.6,220.5,-0.7,1.0,1990.484,13.27,0.007,98.1
09,2022-03-01T16:30:00,2000.0,42.79,6.0312,0.042,-0.017,-0.008,70.0,66.0,66.0,12.1,1504.6,226.6,-0.7,1.0,1990.514,13.27,0.045,112.0
09,2022-03-01T17:00:00,2000.0,42.79,6.0312,0.032,0.015,-0.007,75.0,66.0,70.0,12.1,1504.6,235.3,-0.7,1.0,1990.494,13.27,0.035,64.9
09,2022-03-01T17:30:00,2000.0,42.79,6.0312,0.021,0.001,-0.012,71.0,66.0,67.0,12.1,1504.6,229.4,-0.7,1.0,1990.519,13.27,0.021,87.3
09,2022-03-01T18:00:00,2000.0,42.79,6.0312,0.039,0.002,-0.022,70.0,66.0,68.0,12.1,1504.6,236.6,-0.7,1.0,1990.528,13.27,0.039,87.1
09,2022-03-01T18:30:00,2000.0,42.79,6.0312,0.021,-0.002,-0.014,66.0,64.0,69.0,12.1,1504.6,238.8,-0.7,0.9,1990.55,13.27,0.021,95.4
09,2022-03-01T19:00:00,2000.0,42.79,6.0312,0.041,-0.018,0.003,68.0,63.0,68.0,12.1,1504.6,243.8,-0.7,0.9,1990.527,13.27,0.044,113.7
09,2022-03-01T19:30:00,2000.0,42.79,6.0312,0.04,0.0,-0.005,67.0,66.0,69.0,12.1,1504.6,244.3,-0.7,0.9,1990.527,13.27,0.04,90.0
09,2022-03-01T20:00:00,2000.0,42.79,6.0312,0.029,-0.005,0.005,67.0,65.0,64.0,12.1,1504.6,249.6,-0.8,0.9,1990.524,13.27,0.029,99.8
09,2022-03-01T20:30:00,2000.0,42.79,6.0312,0.022,-0.006,-0.007,69.0,63.0,71.0,12.1,1504.6,244.8,-0.8,1.0,1990.518,13.27,0.022,105.3
09,2022-03-01T21:00:00,2000.0,42.79,6.0312,0.013,-0.002,0.005,68.0,66.0,69.0,12.1,1504.6,243.0,-0.7,1.0,1990.466,13.27,0.013,98.7
